Regional Weather Roundup
Issued by NWS

Home | Current Version | Previous Version | Text Only | Print | Product List | Glossary Off
Versions: 1 2 3 4 5 6 7 8 9 10 11 12 13 14 15 16 17 18 19 20 21 22 23 24 25 26 27 28 29 30 31 32 33 34 35 36 37 38 39 40 41 42 43 44 45 46 47 48 49 50

000
ASUS44 KMEG 272210
RWRTN
TENNESSEE HOURLY STATE WEATHER ROUNDUP
NATIONAL WEATHER SERVICE MEMPHIS TN
400 PM CST SAT DEC 27 2014

TNZ002-004-019-021-049-052-054-088>092-272300-
WEST TENNESSEE

CITY           SKY/WX    TMP DP  RH WIND       PRES   REMARKS
MEMPHIS INTL   LGT RAIN  56  53  90 SE3       30.09R VSB 1
NWS MEMPHIS      N/A     53 N/A N/A MISG        N/A
JACKSON        LGT RAIN  51  49  92 VRB5      30.10S FOG
DYERSBURG      CLOUDY    50  39  66 CALM      30.11R
UNION CITY     CLOUDY    48  48 100 SE3       30.09R
PARIS          CLOUDY    48  48 100 SE3       30.10S
HUNTINGDON     CLOUDY    48  48 100 SE5       30.10S
LEXINGTON      CLOUDY    48  48 100 SE3       30.10S
SAVANNAH       CLOUDY    48  48 100 CALM      30.11S
$$

TNZ008-025-027-028-033-062-065-066-272300-
NORTH MIDDLE TENNESSEE

CITY           SKY/WX    TMP DP  RH WIND       PRES   REMARKS
NASHVILLE      CLOUDY    49  47  93 S8        30.13F
CLARKSVILLE    LGT RAIN  50  48  93 S3        30.13R FOG
SMYRNA         RAIN      48  46  93 SE6       30.15F FOG
COOKEVILLE     CLOUDY    54  41  62 CALM      30.14S
CROSSVILLE     CLOUDY    52  34  50 S6        30.16S
$$

TNZ061-075-076-078-094-096-097-272300-
SOUTH MIDDLE TENNESSEE

CITY           SKY/WX    TMP DP  RH WIND       PRES   REMARKS
FAYETTEVILLE   CLOUDY    52  39  62 MISG      30.13S
TULLAHOMA      CLOUDY    54  37  54 SE7       30.13F
WINCHESTER     CLOUDY    54  41  62 SE6       30.15F
MCMINNVILLE    CLOUDY    52  48  87 CALM      30.14R
COLUMBIA       CLOUDY   N/A N/A N/A CALM      30.11F
SHELBYVILLE    CLOUDY    52  48  87 CALM      30.14F
$$

TNZ017-018-042-046-047-272300-
NORTHEAST TENNESSEE

CITY           SKY/WX    TMP DP  RH WIND       PRES   REMARKS
TRI CITIES     CLOUDY    54  35  48 CALM      30.17F
ELIZABETHTON   PTCLDY    55  32  41 SE3       30.16F
$$

TNZ012-013-036-069-073-074-272300-
CENTRAL EAST TENNESSEE

CITY           SKY/WX    TMP DP  RH WIND       PRES   REMARKS
KNOXVILLE      MOCLDY    51  37  58 CALM      30.17S
OAK RIDGE      CLOUDY    53  38  56 W5        30.19R
GATLINBURG     PTCLDY    50  36  57 CALM      30.17S
MORRISTOWN     PTCLDY    52  39  62 NE3       30.18F
$$

TNZ083-085-099-272300-
SOUTHEAST TENNESSEE

CITY           SKY/WX    TMP DP  RH WIND       PRES   REMARKS
CHATTANOOGA    MOCLDY    56  41  57 CALM      30.18F
$$

SKY/WX REPORTED AS FAIR MEANS FEW OR NO CLOUDS BELOW
12 THOUSAND FEET.



USA.gov is the U.S. government's official web portal to all federal, state and local government web resources and services.